Flag for Canada Weather past 2 weeks in Granby, Quebec, Canada

Now
24 °F

Cold.


Feels Like: 17 °F
Forecast: 23 / 49 °F
Wind: 5 mph from South

Location: Frelighsburg

Current Time: Apr 2, 2015 at 12:02:46 AM

Latest Report: Apr 1, 2015 at 11:00 PM


Visibility: N/A

Pressure: 30.13 "Hg

Humidity: 55%

Dew point: 10 °F

Location of GranbyLocation

Historic Weather in Granby — Graph

°F

Granby temperature yesterday

Maximum temperature yesterday: 30 °F (at 5:00 PM)
Minimum temperature yesterday: 18 °F (at 7:00 AM)
Average temperature yesterday: 24 °F

Past Weeks' High & Low Weather Summary

 TemperatureHumidityPressure
High47 °F (Mar 25, 5:00 PM)100% (Mar 26, 3:00 PM)30.39 "Hg (Mar 26, 3:00 PM)
Low2 °F (Mar 23, 7:00 AM)20% (Mar 20, 3:00 PM)29.54 "Hg (Mar 30, 1:00 PM)
Average23 °F60%30.01 "Hg
* Reported Mar 17 10:00 PM — Apr 1 10:00 PM, Granby, Weather by CustomWeather, © 2015

Note: Actual official high and low records may vary slightly from our data, if they occured in-between our weather recording intervals... More about our weather records

Advertising

Granby weather history for previous 24 hours

 ConditionsComfort  
Time TempWeatherWind HumidityBarometerVisibility
10:00 PM
Wed, Apr 1
25 °FCold.2 mph50%30.13 "HgN/A
9:00 PM26 °FChilly.2 mph48%30.14 "HgN/A
8:00 PM27 °FChilly.2 mph43%30.14 "HgN/A
7:00 PM29 °FChilly.2 mph39%30.13 "HgN/A
6:00 PM29 °FChilly.8 mph35%30.13 "HgN/A
5:00 PM30 °FChilly.7 mph38%30.11 "HgN/A
4:00 PM29 °FChilly.7 mph34%30.10 "HgN/A
3:00 PM28 °FChilly.8 mph37%30.10 "HgN/A
2:00 PM27 °FChilly.7 mph37%30.10 "HgN/A
1:00 PM26 °FChilly.6 mph38%30.10 "HgN/A
12:00 PM24 °FCold.9 mph38%30.09 "HgN/A
11:00 AM24 °FCold.8 mph37%30.09 "HgN/A
10:00 AM23 °FCold.7 mph41%30.07 "HgN/A
9:00 AM21 °FCold.7 mph46%30.06 "HgN/A
8:00 AM19 °FCold.7 mph49%30.04 "HgN/A
7:00 AM18 °FCold.6 mph55%30.00 "HgN/A
6:00 AM18 °FCold.6 mph51%29.96 "HgN/A
5:00 AM19 °FCold.6 mph52%29.93 "HgN/A
4:00 AM20 °FCold.6 mph61%29.91 "HgN/A
3:00 AM23 °FCold.7 mph64%29.89 "HgN/A
2:00 AM24 °FCold.3 mph62%29.87 "HgN/A
1:00 AM24 °FCold.2 mph59%29.86 "HgN/A
12:00 AM25 °FCold.2 mph51%29.86 "HgN/A
Weather by CustomWeather, © 2015

See weather overviewHow to use our weather pages